Location: Lhota
(50.0887°N, 14.0116°E)
Time: 07:06:51
(UTC+00:00)

Cosmos 2082 Rocket - Pass Details

Date: 19 May 2025
Orbit: 832 x 853 km, 71.0° (Epoch: 14 June)

Event Time Altitude Azimuth Distance (km) Brightness Sun altitude
Exits shadow 23:23:47 - 254° (WSW) 3,311 5.1 -19.7°
Reaches altitude 10° 23:26:32 10° 268° (W) 2,445 4.5 -19.7°
Maximum altitude 23:30:57 23° 320° (NW) 1,700 4.2 -19.6°
Drops below altitude 10° 23:35:24 10° 12° (NNE) 2,462 5.9 -19.5°
Sets 23:38:23 0° 27° (NNE) 3,403 6.7 -19.4°
